Location: Arlington
(40.6323°N, 74.1651°W)
Time: 02:29:12
(UTC+00:00)

Cosmos 1980 Rocket - Pass Details

Date: 22 November 2019
Orbit: 827 x 851 km, 71.0° (Epoch: 06 December)

Event Time Altitude Azimuth Distance (km) Brightness Sun altitude
Rises 23:32:54 0° 240° (WSW) 3,392 6.5 -22.3°
Reaches altitude 10° 23:35:49 10° 254° (WSW) 2,465 5.7 -22.8°
Maximum altitude 23:40:18 24° 307° (NW) 1,704 4.2 -23.7°
Drops below altitude 10° 23:44:50 10° 359° (N) 2,485 4.6 -24.5°
Enters shadow 23:46:16 - 7° (N) 2,922 4.9 -24.8°
